Time,TemperatureF,DewpointF,PressureIn,WindDirection,WindDirectionDegrees,WindSpeedMPH,WindSpeedGustMPH,Humidity,HourlyPrecipIn,Conditions,Clouds,dailyrainin,SoftwareType,DateUTC
2013-03-22 00:00:00,32.7,11.0,30.00,East,101,9.0,15.0,40,0.00,CLR,CLR,0.00,WeatherDisplay:10.37,2013-03-22 00:00:00,
2013-03-22 00:05:00,32.7,11.0,29.98,ESE,102,9.0,17.0,40,0.00,CLR,CLR,0.00,WeatherDisplay:10.37,2013-03-22 00:05:00,
2013-03-22 00:10:00,32.7,11.0,29.97,East,91,9.0,17.0,40,0.00,CLR,CLR,0.00,WeatherDisplay:10.37,2013-03-22 00:10:00,
2013-03-22 00:20:00,32.7,11.0,29.97,East,99,14.0,19.0,40,0.00,CLR,CLR,0.00,WeatherDisplay:10.37,2013-03-22 00:20:00,
2013-03-22 00:30:00,32.9,11.2,29.97,East,93,13.0,20.0,40,0.00,CLR,CLR,0.00,WeatherDisplay:10.37,2013-03-22 00:30:00,
2013-03-22 00:40:00,32.9,10.6,29.97,East,98,10.0,17.0,39,0.00,CLR,CLR,0.00,WeatherDisplay:10.37,2013-03-22 00:40:00,
2013-03-22 00:50:00,33.0,10.1,29.97,East,96,12.0,15.0,38,0.00,CLR,CLR,0.00,WeatherDisplay:10.37,2013-03-22 00:50:00,
2013-03-22 01:00:00,33.1,10.8,29.97,East,88,10.0,17.0,39,0.00,CLR,CLR,0.00,WeatherDisplay:10.37,2013-03-22 01:00:00,
2013-03-22 01:10:00,33.1,11.3,29.97,East,96,13.0,18.0,40,0.00,CLR,CLR,0.00,WeatherDisplay:10.37,2013-03-22 01:10:00,
2013-03-22 01:20:00,33.1,11.3,29.97,East,94,13.0,15.0,40,0.00,CLR,CLR,0.00,WeatherDisplay:10.37,2013-03-22 01:20:00,
2013-03-22 01:30:00,33.1,11.9,29.97,East,94,3.0,13.0,41,0.00,CLR,CLR,0.00,WeatherDisplay:10.37,2013-03-22 01:30:00,
2013-03-22 01:40:00,33.1,11.9,29.97,East,94,12.0,15.0,41,0.00,CLR,CLR,0.00,WeatherDisplay:10.37,2013-03-22 01:40:00,
2013-03-22 01:45:00,33.3,12.1,29.97,East,97,9.0,17.0,41,0.00,CLR,CLR,0.00,WeatherDisplay:10.37,2013-03-22 01:45:00,
2013-03-22 01:50:00,33.3,12.1,29.97,East,98,10.0,15.0,41,0.00,CLR,CLR,0.00,WeatherDisplay:10.37,2013-03-22 01:50:00,
2013-03-22 02:00:00,33.3,12.1,29.97,East,90,10.0,15.0,41,0.00,CLR,CLR,0.00,WeatherDisplay:10.37,2013-03-22 02:00:00,
2013-03-22 02:05:00,33.3,12.6,29.97,East,91,13.0,18.0,42,0.00,CLR,CLR,0.00,WeatherDisplay:10.37,2013-03-22 02:05:00,
2013-03-22 02:10:00,33.3,12.6,29.97,East,98,6.0,16.0,42,0.00,CLR,CLR,0.00,WeatherDisplay:10.37,2013-03-22 02:10:00,
2013-03-22 02:20:00,33.3,12.6,29.97,East,94,10.0,15.0,42,0.00,CLR,CLR,0.00,WeatherDisplay:10.37,2013-03-22 02:20:00,
2013-03-22 02:30:00,33.3,12.6,29.97,East,97,8.0,15.0,42,0.00,CLR,CLR,0.00,WeatherDisplay:10.37,2013-03-22 02:30:00,
2013-03-22 02:40:00,33.3,13.1,29.97,East,97,13.0,15.0,43,0.00,CLR,CLR,0.00,WeatherDisplay:10.37,2013-03-22 02:40:00,
2013-03-22 02:50:00,33.3,13.1,29.97,East,93,10.0,16.0,43,0.00,CLR,CLR,0.00,WeatherDisplay:10.37,2013-03-22 02:50:00,
2013-03-22 03:00:00,33.4,13.3,29.97,East,94,6.0,15.0,43,0.00,CLR,CLR,0.00,WeatherDisplay:10.37,2013-03-22 03:00:00,
2013-03-22 03:05:00,33.6,13.5,29.97,ESE,106,12.0,15.0,43,0.00,CLR,CLR,0.00,WeatherDisplay:10.37,2013-03-22 03:05:00,
2013-03-22 03:10:00,33.6,13.5,29.97,ESE,103,12.0,13.0,43,0.00,CLR,CLR,0.00,WeatherDisplay:10.37,2013-03-22 03:10:00,
2013-03-22 03:20:00,33.6,13.5,29.97,East,101,8.0,15.0,43,0.00,CLR,CLR,0.00,WeatherDisplay:10.37,2013-03-22 03:20:00,
2013-03-22 03:30:00,33.6,14.0,29.97,ESE,122,7.0,17.0,44,0.00,CLR,CLR,0.00,WeatherDisplay:10.37,2013-03-22 03:30:00,
2013-03-22 03:40:00,33.6,13.5,29.97,East,101,7.0,12.0,43,0.00,CLR,CLR,0.00,WeatherDisplay:10.37,2013-03-22 03:40:00,
2013-03-22 03:50:00,33.3,13.7,29.97,East,90,6.0,13.0,44,0.00,CLR,CLR,0.00,WeatherDisplay:10.37,2013-03-22 03:50:00,
2013-03-22 03:55:00,33.3,13.7,29.97,East,94,8.0,18.0,44,0.00,CLR,CLR,0.00,WeatherDisplay:10.37,2013-03-22 03:55:00,
2013-03-22 04:00:00,33.3,13.1,29.97,ESE,106,12.0,15.0,43,0.00,CLR,CLR,0.00,WeatherDisplay:10.37,2013-03-22 04:00:00,
2013-03-22 04:05:00,33.3,12.6,29.97,ESE,110,9.0,15.0,42,0.00,CLR,CLR,0.00,WeatherDisplay:10.37,2013-03-22 04:05:00,
2013-03-22 04:10:00,33.3,12.6,29.97,ESE,103,8.0,17.0,42,0.00,CLR,CLR,0.00,WeatherDisplay:10.37,2013-03-22 04:10:00,
2013-03-22 04:20:00,33.3,12.1,29.97,ESE,106,5.0,15.0,41,0.00,CLR,CLR,0.00,WeatherDisplay:10.37,2013-03-22 04:20:00,
2013-03-22 04:30:00,33.1,11.3,29.97,ESE,112,8.0,16.0,40,0.00,CLR,CLR,0.00,WeatherDisplay:10.37,2013-03-22 04:30:00,
2013-03-22 04:40:00,33.1,10.8,29.97,East,94,3.0,11.0,39,0.00,CLR,CLR,0.00,WeatherDisplay:10.37,2013-03-22 04:40:00,
2013-03-22 04:50:00,33.1,11.3,29.97,ESE,105,8.0,22.0,40,0.00,CLR,CLR,0.00,WeatherDisplay:10.37,2013-03-22 04:50:00,
2013-03-22 05:00:00,32.9,11.2,29.97,ESE,106,12.0,15.0,40,0.00,CLR,CLR,0.00,WeatherDisplay:10.37,2013-03-22 05:00:00,
2013-03-22 05:05:00,32.9,11.2,29.97,ESE,106,9.0,13.0,40,0.00,CLR,CLR,0.00,WeatherDisplay:10.37,2013-03-22 05:05:00,
2013-03-22 05:10:00,32.9,11.2,29.97,ESE,109,6.0,13.0,40,0.00,CLR,CLR,0.00,WeatherDisplay:10.37,2013-03-22 05:10:00,
2013-03-22 05:20:00,32.9,10.0,29.97,ESE,104,9.0,20.0,38,0.00,CLR,CLR,0.00,WeatherDisplay:10.37,2013-03-22 05:20:00,
2013-03-22 05:30:00,32.9,10.0,29.97,ESE,105,9.0,13.0,38,0.00,CLR,CLR,0.00,WeatherDisplay:10.37,2013-03-22 05:30:00,
2013-03-22 05:40:00,32.7,11.0,29.97,ESE,105,6.0,13.0,40,0.00,CLR,CLR,0.00,WeatherDisplay:10.37,2013-03-22 05:40:00,
2013-03-22 05:50:00,32.7,11.6,29.97,East,97,9.0,15.0,41,0.00,CLR,CLR,0.00,WeatherDisplay:10.37,2013-03-22 05:50:00,
2013-03-22 06:00:00,32.7,11.6,29.97,ESE,107,9.0,17.0,41,0.00,CLR,CLR,0.00,WeatherDisplay:10.37,2013-03-22 06:00:00,
2013-03-22 06:05:00,32.7,11.6,29.97,ESE,106,9.0,13.0,41,0.00,CLR,CLR,0.00,WeatherDisplay:10.37,2013-03-22 06:05:00,
2013-03-22 06:10:00,32.7,11.6,29.97,ESE,107,5.0,9.0,41,0.00,CLR,CLR,0.00,WeatherDisplay:10.37,2013-03-22 06:10:00,
2013-03-22 06:20:00,32.5,12.5,29.94,ESE,102,10.0,12.0,43,0.00,CLR,CLR,0.00,WeatherDisplay:10.37,2013-03-22 06:20:00,
2013-03-22 06:30:00,32.5,13.0,29.94,East,99,13.0,20.0,44,0.00,CLR,CLR,0.00,WeatherDisplay:10.37,2013-03-22 06:30:00,
2013-03-22 06:40:00,32.4,12.9,29.94,East,101,8.0,13.0,44,0.00,CLR,CLR,0.00,WeatherDisplay:10.37,2013-03-22 06:40:00,
2013-03-22 06:50:00,32.4,13.4,29.94,ESE,104,10.0,17.0,45,0.00,CLR,CLR,0.00,WeatherDisplay:10.37,2013-03-22 06:50:00,
2013-03-22 07:00:00,32.2,14.2,29.94,East,87,10.0,20.0,47,0.00,CLR,CLR,0.00,WeatherDisplay:10.37,2013-03-22 07:00:00,
2013-03-22 07:10:00,32.0,15.0,29.94,East,95,9.0,17.0,49,0.00,CLR,CLR,0.00,WeatherDisplay:10.37,2013-03-22 07:10:00,
2013-03-22 07:20:00,31.8,15.7,29.94,East,94,9.0,16.0,51,0.00,CLR,CLR,0.00,WeatherDisplay:10.37,2013-03-22 07:20:00,
2013-03-22 07:30:00,31.8,15.7,29.94,East,92,10.0,23.0,51,0.00,CLR,CLR,0.00,WeatherDisplay:10.37,2013-03-22 07:30:00,
2013-03-22 07:40:00,32.0,15.9,29.94,East,96,8.0,17.0,51,0.00,CLR,CLR,0.00,WeatherDisplay:10.37,2013-03-22 07:40:00,
2013-03-22 07:50:00,31.8,16.2,29.94,East,96,14.0,20.0,52,0.00,CLR,CLR,0.00,WeatherDisplay:10.37,2013-03-22 07:50:00,
2013-03-22 08:00:00,31.8,16.2,29.94,East,92,10.0,18.0,52,0.00,CLR,CLR,0.00,WeatherDisplay:10.37,2013-03-22 08:00:00,
2013-03-22 08:05:00,31.8,16.2,29.94,East,96,9.0,16.0,52,0.00,CLR,CLR,0.00,WeatherDisplay:10.37,2013-03-22 08:05:00,
2013-03-22 08:10:00,32.0,15.9,29.94,ESE,102,10.0,20.0,51,0.00,CLR,CLR,0.00,WeatherDisplay:10.37,2013-03-22 08:10:00,
2013-03-22 08:20:00,32.0,15.4,29.94,ESE,107,12.0,16.0,50,0.00,CLR,CLR,0.00,WeatherDisplay:10.37,2013-03-22 08:20:00,
2013-03-22 08:30:00,32.0,15.4,29.94,East,97,12.0,19.0,50,0.00,CLR,CLR,0.00,WeatherDisplay:10.37,2013-03-22 08:30:00,
2013-03-22 08:40:00,32.2,14.7,29.94,East,92,9.0,22.0,48,0.00,CLR,CLR,0.00,WeatherDisplay:10.37,2013-03-22 08:40:00,
2013-03-22 08:50:00,32.2,14.2,29.94,East,84,13.0,20.0,47,0.00,CLR,CLR,0.00,WeatherDisplay:10.37,2013-03-22 08:50:00,
2013-03-22 09:00:00,32.4,13.9,29.94,East,101,12.0,24.0,46,0.00,CLR,CLR,0.00,WeatherDisplay:10.37,2013-03-22 09:00:00,
2013-03-22 09:05:00,32.4,13.4,29.94,East,93,18.0,25.0,45,0.00,CLR,CLR,0.00,WeatherDisplay:10.37,2013-03-22 09:05:00,
2013-03-22 09:10:00,32.4,13.4,29.94,East,100,13.0,23.0,45,0.00,CLR,CLR,0.00,WeatherDisplay:10.37,2013-03-22 09:10:00,
2013-03-22 09:20:00,32.5,13.0,29.94,East,91,12.0,15.0,44,0.00,CLR,CLR,0.00,WeatherDisplay:10.37,2013-03-22 09:20:00,
2013-03-22 09:30:00,32.5,12.0,29.94,East,100,10.0,27.0,42,0.00,CLR,CLR,0.00,WeatherDisplay:10.37,2013-03-22 09:30:00,
2013-03-22 09:40:00,32.5,11.4,29.94,ESE,105,13.0,17.0,41,0.00,CLR,CLR,0.00,WeatherDisplay:10.37,2013-03-22 09:40:00,
2013-03-22 09:50:00,32.7,11.6,29.94,East,97,17.0,20.0,41,0.00,CLR,CLR,0.00,WeatherDisplay:10.37,2013-03-22 09:50:00,
2013-03-22 10:00:00,32.7,11.6,29.94,East,96,12.0,17.0,41,0.00,CLR,CLR,0.00,WeatherDisplay:10.37,2013-03-22 10:00:00,
2013-03-22 10:05:00,32.9,11.7,29.94,East,85,10.0,17.0,41,0.00,CLR,CLR,0.00,WeatherDisplay:10.37,2013-03-22 10:05:00,
2013-03-22 10:10:00,33.1,11.9,29.94,East,94,8.0,17.0,41,0.00,CLR,CLR,0.00,WeatherDisplay:10.37,2013-03-22 10:10:00,
2013-03-22 10:20:00,33.1,11.9,29.94,East,95,15.0,20.0,41,0.00,CLR,CLR,0.00,WeatherDisplay:10.37,2013-03-22 10:20:00,
2013-03-22 10:30:00,33.1,11.9,29.94,East,99,10.0,17.0,41,0.00,CLR,CLR,0.00,WeatherDisplay:10.37,2013-03-22 10:30:00,
2013-03-22 10:40:00,33.1,12.4,29.94,East,100,14.0,22.0,42,0.00,CLR,CLR,0.00,WeatherDisplay:10.37,2013-03-22 10:40:00,
2013-03-22 10:50:00,32.9,12.8,29.94,East,101,15.0,25.0,43,0.00,CLR,CLR,0.00,WeatherDisplay:10.37,2013-03-22 10:50:00,
2013-03-22 11:00:00,32.9,12.8,29.94,ESE,103,14.0,22.0,43,0.00,CLR,CLR,0.00,WeatherDisplay:10.37,2013-03-22 11:00:00,
2013-03-22 11:10:00,33.1,12.4,29.94,East,100,12.0,25.0,42,0.00,CLR,CLR,0.00,WeatherDisplay:10.37,2013-03-22 11:10:00,
2013-03-22 11:20:00,33.1,12.4,29.94,East,90,14.0,22.0,42,0.00,CLR,CLR,0.00,WeatherDisplay:10.37,2013-03-22 11:20:00,
2013-03-22 11:30:00,33.1,12.4,29.94,East,96,14.0,23.0,42,0.00,CLR,CLR,0.00,WeatherDisplay:10.37,2013-03-22 11:30:00,
2013-03-22 11:40:00,32.9,12.8,29.97,East,91,12.0,21.0,43,0.00,CLR,CLR,0.00,WeatherDisplay:10.37,2013-03-22 11:40:00,
2013-03-22 11:50:00,32.9,12.8,29.97,East,99,10.0,15.0,43,0.00,CLR,CLR,0.00,WeatherDisplay:10.37,2013-03-22 11:50:00,
2013-03-22 12:00:00,33.1,12.4,29.97,East,98,15.0,20.0,42,0.00,CLR,CLR,0.00,WeatherDisplay:10.37,2013-03-22 12:00:00,
2013-03-22 12:10:00,33.3,12.6,29.97,East,90,8.0,17.0,42,0.00,CLR,CLR,0.00,WeatherDisplay:10.37,2013-03-22 12:10:00,
2013-03-22 12:20:00,33.3,12.6,29.97,East,97,12.0,20.0,42,0.00,CLR,CLR,0.00,WeatherDisplay:10.37,2013-03-22 12:20:00,
2013-03-22 12:30:00,33.3,12.6,29.97,East,100,12.0,15.0,42,0.00,CLR,CLR,0.00,WeatherDisplay:10.37,2013-03-22 12:30:00,
2013-03-22 12:40:00,33.3,13.1,29.97,East,101,10.0,14.0,43,0.00,CLR,CLR,0.00,WeatherDisplay:10.37,2013-03-22 12:40:00,
2013-03-22 12:50:00,33.3,13.1,29.97,East,95,8.0,16.0,43,0.00,CLR,CLR,0.00,WeatherDisplay:10.37,2013-03-22 12:50:00,
2013-03-22 13:00:00,33.3,13.1,29.97,ESE,102,9.0,17.0,43,0.00,CLR,CLR,0.00,WeatherDisplay:10.37,2013-03-22 13:00:00,
2013-03-22 13:10:00,33.4,12.8,29.97,East,99,8.0,15.0,42,0.00,CLR,CLR,0.00,WeatherDisplay:10.37,2013-03-22 13:10:00,
2013-03-22 13:20:00,33.3,12.6,29.97,East,101,13.0,20.0,42,0.00,CLR,CLR,0.00,WeatherDisplay:10.37,2013-03-22 13:20:00,
2013-03-22 13:30:00,33.3,12.6,29.97,ESE,105,8.0,17.0,42,0.00,CLR,CLR,0.00,WeatherDisplay:10.37,2013-03-22 13:30:00,
2013-03-22 13:40:00,33.4,12.2,29.97,East,93,12.0,17.0,41,0.00,CLR,CLR,0.00,WeatherDisplay:10.37,2013-03-22 13:40:00,
2013-03-22 13:50:00,33.6,11.8,29.97,ESE,105,6.0,20.0,40,0.00,CLR,CLR,0.00,WeatherDisplay:10.37,2013-03-22 13:50:00,
2013-03-22 14:00:00,33.6,11.8,29.97,East,94,12.0,15.0,40,0.00,CLR,CLR,0.00,WeatherDisplay:10.37,2013-03-22 14:00:00,
2013-03-22 14:05:00,33.6,12.4,29.97,East,95,9.0,18.0,41,0.00,CLR,CLR,0.00,WeatherDisplay:10.37,2013-03-22 14:05:00,
2013-03-22 14:10:00,33.4,12.2,29.97,East,99,10.0,18.0,41,0.00,CLR,CLR,0.00,WeatherDisplay:10.37,2013-03-22 14:10:00,
2013-03-22 14:20:00,33.6,12.9,29.97,East,94,8.0,23.0,42,0.00,CLR,CLR,0.00,WeatherDisplay:10.37,2013-03-22 14:20:00,
2013-03-22 14:30:00,33.6,12.9,29.97,East,96,10.0,22.0,42,0.00,CLR,CLR,0.00,WeatherDisplay:10.37,2013-03-22 14:30:00,
2013-03-22 14:40:00,33.4,12.8,29.97,East,97,8.0,16.0,42,0.00,CLR,CLR,0.00,WeatherDisplay:10.37,2013-03-22 14:40:00,
2013-03-22 14:50:00,33.3,12.6,29.97,ESE,107,13.0,16.0,42,0.00,CLR,CLR,0.00,WeatherDisplay:10.37,2013-03-22 14:50:00,
2013-03-22 15:00:00,33.3,12.1,29.97,ESE,111,13.0,15.0,41,0.00,CLR,CLR,0.00,WeatherDisplay:10.37,2013-03-22 15:00:00,
2013-03-22 15:10:00,33.3,12.1,29.97,East,99,12.0,17.0,41,0.00,CLR,CLR,0.00,WeatherDisplay:10.37,2013-03-22 15:10:00,
2013-03-22 15:20:00,33.3,12.1,29.97,East,99,7.0,11.0,41,0.00,CLR,CLR,0.00,WeatherDisplay:10.37,2013-03-22 15:20:00,
2013-03-22 15:30:00,33.3,11.5,29.97,ESE,102,8.0,15.0,40,0.00,CLR,CLR,0.00,WeatherDisplay:10.37,2013-03-22 15:30:00,
2013-03-22 15:40:00,33.4,11.7,29.97,ESE,107,12.0,18.0,40,0.00,CLR,CLR,0.00,WeatherDisplay:10.37,2013-03-22 15:40:00,
2013-03-22 15:50:00,33.6,11.3,29.97,East,101,9.0,15.0,39,0.00,CLR,CLR,0.00,WeatherDisplay:10.37,2013-03-22 15:50:00,
2013-03-22 16:00:00,33.8,10.8,29.97,ESE,112,8.0,15.0,38,0.00,CLR,CLR,0.00,WeatherDisplay:10.37,2013-03-22 16:00:00,
2013-03-22 16:10:00,33.8,10.2,29.97,ESE,107,13.0,15.0,37,0.00,CLR,CLR,0.00,WeatherDisplay:10.37,2013-03-22 16:10:00,
2013-03-22 16:20:00,33.8,10.2,29.97,East,93,8.0,18.0,37,0.00,CLR,CLR,0.00,WeatherDisplay:10.37,2013-03-22 16:20:00,
2013-03-22 16:30:00,33.6,10.7,29.97,ESE,105,5.0,15.0,38,0.00,CLR,CLR,0.00,WeatherDisplay:10.37,2013-03-22 16:30:00,
2013-03-22 16:40:00,33.6,11.8,29.94,East,100,8.0,24.0,40,0.00,CLR,CLR,0.00,WeatherDisplay:10.37,2013-03-22 16:40:00,
2013-03-22 16:50:00,33.6,12.4,29.94,East,97,9.0,15.0,41,0.00,CLR,CLR,0.00,WeatherDisplay:10.37,2013-03-22 16:50:00,
2013-03-22 16:55:00,33.3,12.6,29.94,East,96,12.0,17.0,42,0.00,CLR,CLR,0.00,WeatherDisplay:10.37,2013-03-22 16:55:00,
2013-03-22 17:00:00,33.3,13.7,29.94,East,98,10.0,15.0,44,0.00,CLR,CLR,0.00,WeatherDisplay:10.37,2013-03-22 17:00:00,
2013-03-22 17:05:00,33.1,14.5,29.94,East,98,13.0,14.0,46,0.00,CLR,CLR,0.00,WeatherDisplay:10.37,2013-03-22 17:05:00,
2013-03-22 17:10:00,32.9,14.8,29.94,East,95,6.0,15.0,47,0.00,CLR,CLR,0.00,WeatherDisplay:10.37,2013-03-22 17:10:00,
2013-03-22 17:20:00,32.9,15.8,29.94,East,99,9.0,16.0,49,0.00,CLR,CLR,0.00,WeatherDisplay:10.37,2013-03-22 17:20:00,
2013-03-22 17:30:00,32.7,16.1,29.94,East,97,12.0,17.0,50,0.00,CLR,CLR,0.00,WeatherDisplay:10.37,2013-03-22 17:30:00,
2013-03-22 17:40:00,32.4,17.2,29.94,ESE,102,13.0,18.0,53,0.00,CLR,CLR,0.00,WeatherDisplay:10.37,2013-03-22 17:40:00,
2013-03-22 17:50:00,32.2,17.8,29.94,East,86,10.0,20.0,55,0.00,CLR,CLR,0.00,WeatherDisplay:10.37,2013-03-22 17:50:00,
2013-03-22 18:00:00,32.2,18.6,29.94,East,96,13.0,15.0,57,0.00,CLR,CLR,0.00,WeatherDisplay:10.37,2013-03-22 18:00:00,
2013-03-22 18:10:00,32.2,18.6,29.94,East,92,13.0,17.0,57,0.00,CLR,CLR,0.00,WeatherDisplay:10.37,2013-03-22 18:10:00,
2013-03-22 18:20:00,32.2,18.6,29.94,ESE,105,12.0,22.0,57,0.00,CLR,CLR,0.00,WeatherDisplay:10.37,2013-03-22 18:20:00,
2013-03-22 18:30:00,32.0,18.1,29.94,East,91,12.0,20.0,56,0.00,CLR,CLR,0.00,WeatherDisplay:10.37,2013-03-22 18:30:00,
2013-03-22 18:40:00,32.2,16.9,29.94,East,98,10.0,18.0,53,0.00,CLR,CLR,0.00,WeatherDisplay:10.37,2013-03-22 18:40:00,
2013-03-22 18:50:00,32.2,16.1,29.97,East,95,10.0,18.0,51,0.00,CLR,CLR,0.00,WeatherDisplay:10.37,2013-03-22 18:50:00,
2013-03-22 19:00:00,32.2,15.6,29.97,East,88,15.0,20.0,50,0.00,CLR,CLR,0.00,WeatherDisplay:10.37,2013-03-22 19:00:00,
2013-03-22 19:05:00,32.2,15.1,29.95,East,98,10.0,22.0,49,0.00,CLR,CLR,0.00,WeatherDisplay:10.37,2013-03-22 19:05:00,
2013-03-22 19:10:00,32.1,15.1,29.94,East,96,17.0,22.0,49,0.00,CLR,CLR,0.00,WeatherDisplay:10.37,2013-03-22 19:10:00,
2013-03-22 19:20:00,32.0,14.5,29.94,East,96,10.0,21.0,48,0.00,CLR,CLR,0.00,WeatherDisplay:10.37,2013-03-22 19:20:00,
2013-03-22 19:30:00,31.8,14.3,29.94,East,93,12.0,17.0,48,0.00,CLR,CLR,0.00,WeatherDisplay:10.37,2013-03-22 19:30:00,
2013-03-22 19:40:00,31.8,14.8,29.97,East,90,13.0,23.0,49,0.00,CLR,CLR,0.00,WeatherDisplay:10.37,2013-03-22 19:40:00,
2013-03-22 19:50:00,31.5,15.4,29.97,East,86,12.0,19.0,51,0.00,CLR,CLR,0.00,WeatherDisplay:10.37,2013-03-22 19:50:00,
2013-03-22 20:00:00,31.3,16.1,29.97,East,100,14.0,22.0,53,0.00,CLR,CLR,0.00,WeatherDisplay:10.37,2013-03-22 20:00:00,
2013-03-22 20:05:00,31.3,16.1,29.97,East,96,12.0,18.0,53,0.00,CLR,CLR,0.00,WeatherDisplay:10.37,2013-03-22 20:05:00,
2013-03-22 20:10:00,31.3,16.5,29.97,East,96,10.0,16.0,54,0.00,CLR,CLR,0.00,WeatherDisplay:10.37,2013-03-22 20:10:00,
2013-03-22 20:20:00,31.1,17.2,29.97,East,97,9.0,18.0,56,0.00,CLR,CLR,0.00,WeatherDisplay:10.37,2013-03-22 20:20:00,
2013-03-22 20:25:00,31.1,17.2,29.97,East,99,9.0,17.0,56,0.00,CLR,CLR,0.00,WeatherDisplay:10.37,2013-03-22 20:25:00,
2013-03-22 20:40:00,31.1,18.0,29.97,East,95,12.0,18.0,58,0.00,CLR,CLR,0.00,WeatherDisplay:10.37,2013-03-22 20:40:00,
2013-03-22 20:50:00,31.0,18.7,29.97,ENE,75,10.0,17.0,60,0.00,CLR,CLR,0.00,WeatherDisplay:10.37,2013-03-22 20:50:00,
2013-03-22 21:00:00,30.9,19.8,29.97,East,91,12.0,15.0,63,0.00,CLR,CLR,0.00,WeatherDisplay:10.37,2013-03-22 21:00:00,
2013-03-22 21:05:00,30.9,20.2,29.97,East,86,10.0,18.0,64,0.00,CLR,CLR,0.00,WeatherDisplay:10.37,2013-03-22 21:05:00,
2013-03-22 21:10:00,30.9,20.5,29.97,East,85,10.0,17.0,65,0.00,CLR,CLR,0.00,WeatherDisplay:10.37,2013-03-22 21:10:00,
2013-03-22 21:20:00,30.9,20.9,29.97,East,98,14.0,20.0,66,0.00,CLR,CLR,0.00,WeatherDisplay:10.37,2013-03-22 21:20:00,
2013-03-22 21:30:00,31.1,22.1,29.97,East,99,12.0,20.0,69,0.00,CLR,CLR,0.00,WeatherDisplay:10.37,2013-03-22 21:30:00,
2013-03-22 21:40:00,31.1,22.5,29.97,East,87,14.0,18.0,70,0.00,CLR,CLR,0.00,WeatherDisplay:10.37,2013-03-22 21:40:00,
2013-03-22 21:50:00,31.1,22.8,29.97,East,91,12.0,23.0,71,0.00,CLR,CLR,0.00,WeatherDisplay:10.37,2013-03-22 21:50:00,
2013-03-22 22:00:00,31.1,23.1,29.97,East,100,9.0,13.0,72,0.00,CLR,CLR,0.00,WeatherDisplay:10.37,2013-03-22 22:00:00,
2013-03-22 22:05:00,31.1,23.1,29.97,East,101,10.0,17.0,72,0.00,CLR,CLR,0.00,WeatherDisplay:10.37,2013-03-22 22:05:00,
2013-03-22 22:10:00,31.1,23.1,29.97,East,91,12.0,17.0,72,0.00,CLR,CLR,0.00,WeatherDisplay:10.37,2013-03-22 22:10:00,
2013-03-22 22:20:00,31.3,23.3,29.97,East,99,12.0,17.0,72,0.00,CLR,CLR,0.00,WeatherDisplay:10.37,2013-03-22 22:20:00,
2013-03-22 22:30:00,31.1,23.1,29.97,ESE,109,10.0,22.0,72,0.00,CLR,CLR,0.00,WeatherDisplay:10.37,2013-03-22 22:30:00,
2013-03-22 22:40:00,31.1,23.1,30.00,East,91,14.0,16.0,72,0.00,CLR,CLR,0.00,WeatherDisplay:10.37,2013-03-22 22:40:00,
2013-03-22 22:50:00,31.1,23.1,30.00,East,93,10.0,20.0,72,0.00,CLR,CLR,0.00,WeatherDisplay:10.37,2013-03-22 22:50:00,
2013-03-22 23:00:00,31.1,22.8,30.00,East,98,10.0,18.0,71,0.00,CLR,CLR,0.00,WeatherDisplay:10.37,2013-03-22 23:00:00,
2013-03-22 23:05:00,31.1,22.5,30.00,East,99,13.0,17.0,70,0.00,CLR,CLR,0.00,WeatherDisplay:10.37,2013-03-22 23:05:00,
2013-03-22 23:10:00,31.1,22.1,30.00,East,100,14.0,15.0,69,0.00,CLR,CLR,0.00,WeatherDisplay:10.37,2013-03-22 23:10:00,
2013-03-22 23:20:00,31.1,21.1,30.00,East,101,12.0,15.0,66,0.00,CLR,CLR,0.00,WeatherDisplay:10.37,2013-03-22 23:20:00,
2013-03-22 23:30:00,31.3,19.8,30.00,East,97,14.0,21.0,62,0.00,CLR,CLR,0.00,WeatherDisplay:10.37,2013-03-22 23:30:00,
2013-03-22 23:40:00,31.3,18.6,30.00,East,93,13.0,22.0,59,0.00,CLR,CLR,0.00,WeatherDisplay:10.37,2013-03-22 23:40:00,
2013-03-22 23:50:00,31.3,18.2,30.00,East,94,14.0,17.0,58,0.00,CLR,CLR,0.00,WeatherDisplay:10.37,2013-03-22 23:50:00,